Rockland, ME

6:00 PM EDT on September 21, 2017 (GMT -0400)
Knox County Regional

Weather History for KRKD - March, 2015

Change the Weather History Date:

Sunday, March 22, 2015

  Actual Average Record
Temperature  
Mean Temperature 22 °F -  
Max Temperature 33 °F 38 °F 80 °F (2012)
Min Temperature 12 °F 25 °F 12 °F (2015)
Degree Days  
Heating Degree Days 42    
Moisture  
Dew Point 3 °F    
Average Humidity 51    
Maximum Humidity 93    
Minimum Humidity 32    
Precipitation  
Precipitation 0.00 in - - ()
Sea Level Pressure  
Sea Level Pressure 29.79 in    
Wind  
Wind Speed 15 mph (West)    
Max Wind Speed 29 mph    
Max Gust Speed 38 mph    
Visibility 9 miles    
Events      
Averages and records for this station are not official NWS values.
T = Trace of Precipitation, MM = Missing Value Source: NWS Daily Summary

Daily Weather History Graph

Daily Weather History Graph

Search for Another Location

Airport or City:

Trip Planner

Search our weather history database for the weather conditions in past years. The results will help you decide how hot, cold, wet, or windy it might be!

Date:

Astronomy

Mar. 22, 2015 Rise Set
Actual Time 6:36 AM EDT 6:50 PM EDT
Civil Twilight 6:07 AM EDT 7:19 PM EDT
Nautical Twilight 5:33 AM EDT 7:53 PM EDT
Astronomical Twilight 4:59 AM EDT 8:28 PM EDT
Moon 7:55 AM EDT (3/22) 9:53 PM EDT (3/22)
Length of Visible Light 13h 12m
Length of Day
12h 14m
Waxing Crescent, 7% of the Moon is Illuminated
Mar 22
Waxing Crescent
Mar 27
First Quarter
Apr 4
Full
Apr 11
Last Quarter
Apr 18
New

Hourly Weather History & Observations

Time (EDT) Temp. Windchill Dew Point Humidity Pressure Visibility Wind Dir Wind Speed Gust Speed Precip Events Conditions
12:15 AM 33.8 °F 29.6 °F 32.0 °F 93% 29.66 in 7.0 mi SW 4.6 mph - N/A   Overcast
12:35 AM 33.8 °F 29.6 °F 32.0 °F 93% 29.66 in 7.0 mi SW 4.6 mph - N/A   Overcast
12:55 AM 33.8 °F 29.6 °F 32.0 °F 93% 29.64 in 3.0 mi SW 4.6 mph - N/A   Overcast
1:15 AM 33.8 °F 29.6 °F 32.0 °F 93% 29.64 in 10.0 mi SW 4.6 mph - N/A   Overcast
1:35 AM 33.8 °F 28.6 °F 32.0 °F 93% 29.63 in 10.0 mi SW 5.8 mph - N/A   Overcast
1:55 AM 33.8 °F 26.4 °F 32.0 °F 93% 29.63 in 10.0 mi West 9.2 mph - N/A   Overcast
2:15 AM 33.8 °F 25.8 °F 32.0 °F 93% 29.62 in 10.0 mi West 10.4 mph - N/A   Overcast
2:35 AM 33.8 °F 24.8 °F 32.0 °F 93% 29.62 in 10.0 mi West 12.7 mph - N/A   Overcast
2:55 AM 33.8 °F 23.5 °F 30.2 °F 87% 29.62 in 10.0 mi West 16.1 mph - N/A   Mostly Cloudy
3:15 AM 32.0 °F 19.8 °F 28.4 °F 87% 29.61 in 10.0 mi West 20.7 mph 28.8 mph N/A   Scattered Clouds
3:35 AM 30.2 °F 18.1 °F 26.6 °F 86% 29.62 in 10.0 mi WNW 18.4 mph 24.2 mph N/A   Mostly Cloudy
3:55 AM 28.4 °F 15.8 °F 23.0 °F 80% 29.63 in 10.0 mi West 18.4 mph 26.5 mph N/A   Mostly Cloudy
4:15 AM 28.4 °F 16.6 °F 21.2 °F 74% 29.64 in 10.0 mi WNW 16.1 mph 23.0 mph N/A   Partly Cloudy
4:35 AM 26.6 °F 13.1 °F 19.4 °F 74% 29.64 in 10.0 mi WNW 19.6 mph 25.3 mph N/A   Clear
4:55 AM 24.8 °F 11.1 °F 14.0 °F 64% 29.65 in 10.0 mi WNW 18.4 mph 29.9 mph N/A   Clear
5:15 AM 23.0 °F 10.1 °F 12.2 °F 63% 29.67 in 10.0 mi WNW 15.0 mph 26.5 mph N/A   Clear
5:35 AM 21.2 °F 6.0 °F 10.4 °F 63% 29.67 in 10.0 mi WNW 19.6 mph 27.6 mph N/A   Clear
5:55 AM 21.2 °F 7.3 °F 12.2 °F 68% 29.68 in 10.0 mi West 16.1 mph 24.2 mph N/A   Clear
6:15 AM 21.2 °F 6.8 °F 10.4 °F 63% 29.69 in 10.0 mi WNW 17.3 mph 25.3 mph N/A   Clear
6:35 AM 19.4 °F 6.0 °F 8.6 °F 63% 29.69 in 10.0 mi WNW 13.8 mph 21.9 mph N/A   Clear
6:55 AM 17.6 °F 0.5 °F 1.4 °F 49% 29.70 in 10.0 mi West 21.9 mph 33.4 mph N/A   Clear
7:15 AM 17.6 °F 0.5 °F 1.4 °F 49% 29.73 in 10.0 mi WNW 21.9 mph 29.9 mph N/A   Clear
7:35 AM 17.6 °F 0.9 °F -0.4 °F 45% 29.73 in 10.0 mi WNW 20.7 mph 31.1 mph N/A   Clear
7:55 AM 17.6 °F 1.7 °F -0.4 °F 45% 29.75 in 10.0 mi WNW 18.4 mph 34.5 mph N/A   Clear
8:15 AM 15.8 °F 1.4 °F -0.4 °F 49% 29.75 in 10.0 mi West 13.8 mph 29.9 mph N/A   Clear
8:35 AM 15.8 °F -2.3 °F -0.4 °F 49% 29.75 in 10.0 mi West 23.0 mph 32.2 mph N/A   Clear
8:55 AM 15.8 °F -3.1 °F -0.4 °F 49% 29.76 in 10.0 mi West 25.3 mph 28.8 mph N/A   Clear
9:15 AM 15.8 °F -2.7 °F -2.2 °F 45% 29.77 in 10.0 mi West 24.2 mph 31.1 mph N/A   Clear
9:35 AM 15.8 °F -1.1 °F -4.0 °F 41% 29.77 in 10.0 mi West 19.6 mph 29.9 mph N/A   Clear
9:55 AM 15.8 °F -2.3 °F -5.8 °F 38% 29.77 in 10.0 mi WNW 23.0 mph 35.7 mph N/A   Clear
10:15 AM 15.8 °F -1.9 °F -5.8 °F 38% 29.79 in 2.0 mi WNW 21.9 mph 38.0 mph N/A   Clear
10:35 AM 15.8 °F -0.2 °F -5.8 °F 38% 29.79 in 5.0 mi WNW 17.3 mph 32.2 mph N/A   Clear
10:55 AM 17.6 °F -1.0 °F -5.8 °F 35% 29.79 in 7.0 mi WNW 26.5 mph 33.4 mph N/A   Clear
11:15 AM 17.6 °F 1.7 °F -5.8 °F 35% 29.79 in 8.0 mi WNW 18.4 mph 31.1 mph N/A   Clear
11:35 AM 17.6 °F 1.7 °F -5.8 °F 35% 29.79 in 5.0 mi NW 18.4 mph 33.4 mph N/A   Clear
11:55 AM 17.6 °F 1.7 °F -7.6 °F 32% 29.79 in 9.0 mi WNW 18.4 mph 28.8 mph N/A   Clear
12:15 PM 15.8 °F -1.9 °F -5.8 °F 38% 29.79 in 3.0 mi West 21.9 mph 33.4 mph N/A   Clear
12:35 PM 15.8 °F -3.1 °F -2.2 °F 45% 29.80 in 5.0 mi West 25.3 mph 38.0 mph N/A   Clear
12:55 PM 17.6 °F -1.6 °F -4.0 °F 38% 29.80 in 3.0 mi West 28.8 mph 34.5 mph N/A   Clear
1:15 PM 17.6 °F 0.5 °F -4.0 °F 38% 29.80 in 5.0 mi West 21.9 mph 38.0 mph N/A   Clear
1:35 PM 17.6 °F 0.9 °F -2.2 °F 42% 29.81 in 6.0 mi WNW 20.7 mph 35.7 mph N/A   Clear
1:55 PM 15.8 °F -2.7 °F -4.0 °F 41% 29.80 in 9.0 mi West 24.2 mph 35.7 mph N/A   Clear
2:15 PM 17.6 °F 0.1 °F -2.2 °F 42% 29.80 in 10.0 mi West 23.0 mph 38.0 mph N/A   Clear
2:35 PM 17.6 °F 0.9 °F -5.8 °F 35% 29.81 in 10.0 mi West 20.7 mph 36.8 mph N/A   Clear
2:55 PM 17.6 °F -0.6 °F -4.0 °F 38% 29.81 in 10.0 mi West 25.3 mph 34.5 mph N/A   Clear
3:15 PM 17.6 °F -0.6 °F -5.8 °F 35% 29.80 in 10.0 mi West 25.3 mph 32.2 mph N/A   Clear
3:35 PM 17.6 °F 1.3 °F -5.8 °F 35% 29.82 in 10.0 mi West 19.6 mph 29.9 mph N/A   Clear
3:55 PM 17.6 °F 1.3 °F -5.8 °F 35% 29.82 in 10.0 mi West 19.6 mph 29.9 mph N/A   Clear
4:15 PM 17.6 °F 1.3 °F -5.8 °F 35% 29.82 in 10.0 mi WNW 19.6 mph 32.2 mph N/A   Clear
4:35 PM 17.6 °F 1.7 °F -5.8 °F 35% 29.82 in 10.0 mi West 18.4 mph 25.3 mph N/A   Clear
4:55 PM 17.6 °F -1.3 °F -7.6 °F 32% 29.82 in 10.0 mi West 27.6 mph 34.5 mph N/A   Clear
5:15 PM 17.6 °F 0.5 °F -7.6 °F 32% 29.83 in 10.0 mi West 21.9 mph 32.2 mph N/A   Clear
5:35 PM 17.6 °F 1.3 °F -7.6 °F 32% 29.84 in 10.0 mi West 19.6 mph 28.8 mph N/A   Clear
5:55 PM 17.6 °F -0.3 °F -7.6 °F 32% 29.85 in 10.0 mi West 24.2 mph 33.4 mph N/A   Clear
6:15 PM 17.6 °F 2.2 °F -7.6 °F 32% 29.86 in 10.0 mi West 17.3 mph 26.5 mph N/A   Clear
6:35 PM 15.8 °F -0.6 °F -7.6 °F 35% 29.87 in 10.0 mi WNW 18.4 mph 31.1 mph N/A   Clear
6:55 PM 15.8 °F 4.2 °F -9.4 °F 32% 29.88 in 10.0 mi WNW 9.2 mph 19.6 mph N/A   Clear
7:15 PM 14.0 °F -3.4 °F -7.6 °F 38% 29.90 in 10.0 mi West 19.6 mph 25.3 mph N/A   Clear
7:35 PM 14.0 °F -3.9 °F -7.6 °F 38% 29.91 in 10.0 mi West 20.7 mph 29.9 mph N/A   Clear
7:55 PM 12.2 °F -3.7 °F -7.6 °F 41% 29.92 in 10.0 mi WNW 15.0 mph 21.9 mph N/A   Clear
8:15 PM 12.2 °F -3.1 °F -7.6 °F 41% 29.94 in 10.0 mi West 13.8 mph 20.7 mph N/A   Clear
8:35 PM 12.2 °F -4.3 °F -7.6 °F 41% 29.94 in 10.0 mi West 16.1 mph 25.3 mph N/A   Clear
8:55 PM 12.2 °F -5.3 °F -7.6 °F 41% 29.94 in 10.0 mi West 18.4 mph 28.8 mph N/A   Clear
9:15 PM 12.2 °F -6.7 °F -7.6 °F 41% 29.94 in 10.0 mi West 21.9 mph 32.2 mph N/A   Clear
9:35 PM 12.2 °F -6.3 °F -5.8 °F 45% 29.95 in 10.0 mi West 20.7 mph 26.5 mph N/A   Clear
9:55 PM 12.2 °F -4.8 °F -5.8 °F 45% 29.95 in 10.0 mi West 17.3 mph 26.5 mph N/A   Clear
10:15 PM 12.2 °F -4.3 °F -7.6 °F 41% 29.96 in 10.0 mi West 16.1 mph 20.7 mph N/A   Clear
10:35 PM 12.2 °F -5.8 °F -7.6 °F 41% 29.96 in 10.0 mi West 19.6 mph 26.5 mph N/A   Clear
10:55 PM 12.2 °F -3.1 °F -5.8 °F 45% 29.96 in 10.0 mi West 13.8 mph - N/A   Clear
11:15 PM 12.2 °F -4.8 °F -7.6 °F 41% 29.96 in 10.0 mi West 17.3 mph 23.0 mph N/A   Clear
11:35 PM 12.2 °F -3.7 °F -5.8 °F 45% 29.96 in 10.0 mi West 15.0 mph 23.0 mph N/A   Clear
11:55 PM 12.2 °F -3.1 °F -5.8 °F 45% 29.96 in 10.0 mi West 13.8 mph 20.7 mph N/A   Clear